| time (UTC) | temp F | wind direction | speed knots | gust knots | rain 1hr in | rain 24hr in | rain mn in | humidity % | barometer mb |
| 20260507161203 | 64 | 317 | 2.6 | 2.6 | 0.00 | 0.00 | 0.00 | 77 | |
| 20260507160659 | 63 | 354 | 0.9 | 2.6 | 0.00 | 0.00 | 0.00 | 79 | |
| 20260507160156 | 64 | 308 | 1.7 | 2.6 | 0.00 | 0.00 | 0.00 | 79 | |
| 20260507155651 | 64 | 306 | 1.7 | 5.2 | 0.00 | 0.00 | 0.00 | 78 | |
| 20260507155148 | 64 | 80 | 1.7 | 5.2 | 0.00 | 0.00 | 0.00 | 78 | |
| 20260507154644 | 64 | 317 | 0.9 | 4.3 | 0.00 | 0.00 | 0.00 | 80 | |
| 20260507154142 | 62 | 328 | 0.0 | 1.7 | 0.00 | 0.00 | 0.00 | 82 | |
| 20260507153638 | 62 | 9 | 1.7 | 1.7 | 0.00 | 0.00 | 0.00 | 83 | |
| 20260507153135 | 63 | 329 | 2.6 | 5.2 | 0.00 | 0.00 | 0.00 | 81 | |
| 20260507152631 | 63 | 308 | 1.7 | 4.3 | 0.00 | 0.00 | 0.00 | 80 | |
| 20260507152127 | 62 | 212 | 0.0 | 2.6 | 0.00 | 0.00 | 0.00 | 83 | |
| 20260507151624 | 61 | 297 | 1.7 | 5.2 | 0.00 | 0.00 | 0.00 | 84 | |
| 20260507151121 | 61 | 244 | 1.7 | 4.3 | 0.00 | 0.00 | 0.00 | 85 | |
| 20260507150618 | 61 | 219 | 4.3 | 5.2 | 0.00 | 0.00 | 0.00 | 85 | |
| 20260507150114 | 61 | 325 | 4.3 | 6.1 | 0.00 | 0.00 | 0.00 | 85 | |
| 20260507145609 | 60 | 268 | 0.0 | 2.6 | 0.00 | 0.00 | 0.00 | 87 | |
| 20260507145108 | 60 | 283 | 2.6 | 2.6 | 0.00 | 0.00 | 0.00 | 87 | |
| 20260507144603 | 60 | 294 | 1.7 | 1.7 | 0.00 | 0.00 | 0.00 | 88 | |
| 20260507144102 | 60 | 241 | 0.0 | 0.9 | 0.00 | 0.00 | 0.00 | 88 | |
| 20260507143558 | 59 | 233 | 0.0 | 0.9 | 0.00 | 0.00 | 0.00 | 89 | |
| 20260507143055 | 59 | 228 | 0.9 | 1.7 | 0.00 | 0.00 | 0.00 | 89 | |
| 20260507142555 | 59 | 216 | 0.9 | 2.6 | 0.00 | 0.00 | 0.00 | 90 | |
| 20260507142053 | 58 | 256 | 0.0 | 0.9 | 0.00 | 0.00 | 0.00 | 90 | |
| 20260507141549 | 58 | 213 | 0.9 | 1.7 | 0.00 | 0.00 | 0.00 | 91 | |
| 20260507141046 | 57 | 226 | 1.7 | 2.6 | 0.00 | 0.00 | 0.00 | 91 | |
| 20260507140542 | 57 | 223 | 0.9 | 2.6 | 0.00 | 0.00 | 0.00 | 91 | |
| 20260507140040 | 57 | 229 | 1.7 | 2.6 | 0.00 | 0.00 | 0.00 | 90 | |
| 20260507135536 | 57 | 221 | 1.7 | 4.3 | 0.00 | 0.00 | 0.00 | 90 | |
| 20260507135034 | 57 | 224 | 3.5 | 5.2 | 0.00 | 0.00 | 0.00 | 90 | |
| 20260507134530 | 57 | 224 | 1.7 | 6.1 | 0.00 | 0.00 | 0.00 | 90 | |
| 20260507134026 | 57 | 223 | 2.6 | 6.1 | 0.00 | 0.00 | 0.00 | 90 | |
| 20260507133522 | 57 | 219 | 2.6 | 4.3 | 0.00 | 0.00 | 0.00 | 90 | |
| 20260507133021 | 56 | 225 | 1.7 | 5.2 | 0.00 | 0.00 | 0.00 | 90 | |
| 20260507132517 | 56 | 217 | 4.3 | 5.2 | 0.00 | 0.00 | 0.00 | 90 | |
| 20260507132013 | 56 | 213 | 4.3 | 5.2 | 0.00 | 0.00 | 0.00 | 90 | |
| 20260507131510 | 56 | 219 | 4.3 | 5.2 | 0.00 | 0.00 | 0.00 | 91 | |
| 20260507131007 | 56 | 213 | 3.5 | 5.2 | 0.00 | 0.00 | 0.00 | 91 | |
| 20260507130504 | 55 | 214 | 2.6 | 2.6 | 0.00 | 0.00 | 0.00 | 91 | |
| 20260507130003 | 55 | 227 | 2.6 | 4.3 | 0.00 | 0.00 | 0.00 | 91 | |
| 20260507125501 | 54 | 221 | 1.7 | 2.6 | 0.00 | 0.00 | 0.00 | 92 | |
| 20260507124958 | 54 | 222 | 0.0 | 0.9 | 0.00 | 0.00 | 0.00 | 91 | |
| 20260507124454 | 55 | 222 | 0.0 | 0.0 | 0.00 | 0.00 | 0.00 | 91 | |
| 20260507123952 | 55 | 231 | 0.0 | 1.7 | 0.00 | 0.00 | 0.00 | 91 | |
| 20260507123449 | 54 | 218 | 0.9 | 0.9 | 0.00 | 0.00 | 0.00 | 91 | |
| 20260507122946 | 55 | 215 | 0.0 | 0.0 | 0.00 | 0.00 | 0.00 | 90 | |
| 20260507122441 | 55 | 214 | 0.0 | 0.0 | 0.00 | 0.00 | 0.00 | 90 | |
| 20260507121937 | 55 | 214 | 0.0 | 0.0 | 0.00 | 0.00 | 0.00 | 89 | |
| 20260507121433 | 56 | 233 | 0.9 | 2.6 | 0.00 | 0.00 | 0.00 | 90 | |
| 20260507120930 | 55 | 223 | 1.7 | 2.6 | 0.00 | 0.00 | 0.00 | 90 | |
| 20260507120426 | 55 | 237 | 1.7 | 1.7 | 0.00 | 0.00 | 0.00 | 90 | |
| 20260507115922 | 55 | 226 | 0.9 | 2.6 | 0.00 | 0.00 | 0.00 | 91 | |
| 20260507115418 | 55 | 217 | 1.7 | 1.7 | 0.00 | 0.00 | 0.00 | 91 | |
| 20260507114914 | 55 | 229 | 0.0 | 0.0 | 0.00 | 0.00 | 0.00 | 90 | |
| 20260507114411 | 55 | 229 | 0.0 | 0.9 | 0.00 | 0.00 | 0.00 | 90 | |
| 20260507113908 | 56 | 229 | 0.0 | 1.7 | 0.00 | 0.00 | 0.00 | 90 | |
| 20260507113406 | 56 | 215 | 0.9 | 2.6 | 0.00 | 0.00 | 0.00 | 90 | |
| 20260507112903 | 56 | 217 | 0.9 | 2.6 | 0.00 | 0.00 | 0.00 | 90 | |
| 20260507112400 | 56 | 234 | 2.6 | 2.6 | 0.00 | 0.00 | 0.00 | 91 | |
| 20260507111858 | 55 | 222 | 1.7 | 1.7 | 0.00 | 0.00 | 0.00 | 91 | |
| 20260507111354 | 55 | 215 | 0.9 | 2.6 | 0.00 | 0.00 | 0.00 | 92 | |
| 20260507110850 | 55 | 227 | 0.9 | 0.9 | 0.00 | 0.00 | 0.00 | 92 | |
| 20260507110346 | 55 | 225 | 0.0 | 0.0 | 0.00 | 0.00 | 0.00 | 92 | |
| 20260507105844 | 55 | 226 | 0.0 | 0.0 | 0.00 | 0.00 | 0.00 | 92 | |
| 20260507105340 | 55 | 227 | 0.0 | 0.0 | 0.00 | 0.00 | 0.00 | 92 | |
| 20260507104837 | 55 | 227 | 0.0 | 0.0 | 0.00 | 0.00 | 0.00 | 92 | |
| 20260507104334 | 55 | 226 | 0.9 | 1.7 | 0.00 | 0.00 | 0.00 | 92 | |
| 20260507103829 | 55 | 224 | 0.0 | 0.9 | 0.00 | 0.00 | 0.00 | 92 | |
| 20260507103326 | 55 | 224 | 0.0 | 0.0 | 0.00 | 0.00 | 0.00 | 91 | |
| 20260507102823 | 56 | 224 | 0.0 | 0.0 | 0.00 | 0.00 | 0.00 | 91 | |
| 20260507102319 | 56 | 224 | 0.0 | 0.0 | 0.00 | 0.00 | 0.00 | 90 | |
| 20260507101816 | 57 | 240 | 0.0 | 1.7 | 0.00 | 0.00 | 0.00 | 91 | |
| 20260507101315 | 57 | 212 | 2.6 | 4.3 | 0.00 | 0.00 | 0.00 | 92 | |
| 20260507100813 | 56 | 218 | 1.7 | 1.7 | 0.00 | 0.00 | 0.00 | 92 | |
| 20260507100311 | 57 | 232 | 0.0 | 0.9 | 0.00 | 0.00 | 0.00 | 91 | |
| 20260507095809 | 57 | 232 | 0.0 | 0.9 | 0.00 | 0.00 | 0.00 | 91 | |
| 20260507095306 | 57 | 239 | 0.9 | 1.7 | 0.00 | 0.00 | 0.00 | 92 | |
| 20260507094802 | 56 | 249 | 2.6 | 2.6 | 0.00 | 0.00 | 0.00 | 92 | |
| 20260507094259 | 57 | 233 | 0.0 | 0.9 | 0.00 | 0.00 | 0.00 | 91 | |
| 20260507093756 | 57 | 229 | 0.0 | 1.7 | 0.00 | 0.00 | 0.00 | 92 | |
| 20260507093254 | 57 | 219 | 1.7 | 1.7 | 0.00 | 0.00 | 0.00 | 92 | |
| 20260507092752 | 57 | 232 | 1.7 | 1.7 | 0.00 | 0.00 | 0.00 | 92 | |
| 20260507092248 | 57 | 222 | 0.9 | 0.9 | 0.00 | 0.00 | 0.00 | 92 | |
| 20260507091744 | 58 | 229 | 0.9 | 0.9 | 0.00 | 0.00 | 0.00 | 92 | |
| 20260507091241 | 57 | 252 | 0.9 | 1.7 | 0.00 | 0.00 | 0.00 | 91 | |
| 20260507090736 | 57 | 248 | 0.0 | 0.9 | 0.00 | 0.00 | 0.00 | 90 | |
| 20260507090233 | 58 | 250 | 0.9 | 1.7 | 0.00 | 0.00 | 0.00 | 91 | |
| 20260507085730 | 58 | 253 | 0.9 | 0.9 | 0.00 | 0.00 | 0.00 | 91 | |
| 20260507085227 | 58 | 231 | 1.7 | 1.7 | 0.00 | 0.00 | 0.00 | 91 | |
| 20260507084724 | 58 | 242 | 0.0 | 0.0 | 0.00 | 0.00 | 0.00 | 91 | |
| 20260507084220 | 58 | 238 | 0.9 | 1.7 | 0.00 | 0.00 | 0.00 | 91 | |
| 20260507083718 | 58 | 239 | 0.9 | 1.7 | 0.00 | 0.00 | 0.00 | 91 | |
| 20260507083214 | 57 | 240 | 1.7 | 1.7 | 0.00 | 0.00 | 0.00 | 91 | |
| 20260507082710 | 58 | 235 | 0.0 | 0.9 | 0.00 | 0.00 | 0.00 | 91 | |
| 20260507082207 | 57 | 234 | 0.9 | 0.9 | 0.00 | 0.00 | 0.00 | 90 | |
| 20260507081703 | 58 | 255 | 0.9 | 1.7 | 0.00 | 0.00 | 0.00 | 90 | |
| 20260507081159 | 58 | 227 | 0.0 | 0.9 | 0.00 | 0.00 | 0.00 | 90 | |
| 20260507080656 | 58 | 217 | 0.9 | 1.7 | 0.00 | 0.00 | 0.00 | 89 | |
| 20260507080153 | 58 | 223 | 0.0 | 2.6 | 0.00 | 0.00 | 0.00 | 89 | |
| 20260507075648 | 58 | 248 | 1.7 | 2.6 | 0.00 | 0.00 | 0.00 | 88 | |
| 20260507075144 | 58 | 225 | 3.5 | 5.2 | 0.00 | 0.00 | 0.00 | 89 | |
| 20260507074641 | 58 | 221 | 3.5 | 4.3 | 0.00 | 0.00 | 0.00 | 89 | |
| 20260507074139 | 58 | 231 | 1.7 | 2.6 | 0.00 | 0.00 | 0.00 | 90 | |
| 20260507073635 | 58 | 230 | 0.9 | 1.7 | 0.00 | 0.00 | 0.00 | 89 | |
| 20260507073132 | 58 | 227 | 0.9 | 0.9 | 0.00 | 0.00 | 0.00 | 89 | |
| 20260507072630 | 58 | 228 | 1.7 | 1.7 | 0.00 | 0.00 | 0.00 | 89 | |
| 20260507072127 | 58 | 232 | 0.9 | 1.7 | 0.00 | 0.00 | 0.00 | 88 | |
| 20260507071624 | 59 | 244 | 0.9 | 1.7 | 0.00 | 0.00 | 0.00 | 88 | |
| 20260507071120 | 59 | 228 | 0.9 | 1.7 | 0.00 | 0.00 | 0.00 | 89 | |
| 20260507070617 | 59 | 235 | 0.9 | 1.7 | 0.00 | 0.00 | 0.00 | 89 | |
| 20260507070114 | 59 | 242 | 0.9 | 0.9 | 0.00 | 0.00 | 0.00 | 88 | |
| 20260507065611 | 59 | 246 | 0.9 | 2.6 | 0.00 | 0.00 | 0.00 | 89 | |
| 20260507065108 | 59 | 256 | 0.9 | 1.7 | 0.00 | 0.00 | 0.00 | 89 | |
| 20260507064606 | 59 | 238 | 0.9 | 1.7 | 0.00 | 0.00 | 0.00 | 88 | |
| 20260507064104 | 59 | 222 | 1.7 | 1.7 | 0.00 | 0.00 | 0.00 | 88 | |
| 20260507063601 | 59 | 232 | 0.9 | 1.7 | 0.00 | 0.00 | 0.00 | 88 | |
| 20260507063058 | 59 | 244 | 0.9 | 1.7 | 0.00 | 0.00 | 0.00 | 88 | |
| 20260507062554 | 59 | 239 | 1.7 | 1.7 | 0.00 | 0.00 | 0.00 | 87 | |
| 20260507062052 | 59 | 249 | 0.9 | 0.9 | 0.00 | 0.00 | 0.00 | 87 | |
| 20260507061550 | 59 | 237 | 0.9 | 1.7 | 0.00 | 0.00 | 0.00 | 86 | |
| 20260507061048 | 59 | 243 | 1.7 | 1.7 | 0.00 | 0.00 | 0.00 | 86 | |
| 20260507060545 | 59 | 251 | 0.9 | 1.7 | 0.00 | 0.00 | 0.00 | 87 | |
| 20260507060042 | 59 | 239 | 0.9 | 0.9 | 0.00 | 0.00 | 0.00 | 85 | |
| 20260507055537 | 60 | 252 | 1.7 | 1.7 | 0.00 | 0.00 | 0.00 | 85 | |
| 20260507055033 | 60 | 256 | 0.9 | 1.7 | 0.00 | 0.00 | 0.00 | 85 | |
| 20260507054530 | 60 | 255 | 0.9 | 1.7 | 0.00 | 0.00 | 0.00 | 85 | |
| 20260507054027 | 60 | 259 | 1.7 | 1.7 | 0.00 | 0.00 | 0.00 | 85 | |
| 20260507053525 | 60 | 264 | 0.9 | 0.9 | 0.00 | 0.00 | 0.00 | 85 | |
| 20260507053023 | 60 | 265 | 0.9 | 0.9 | 0.00 | 0.00 | 0.00 | 85 | |
| 20260507052520 | 60 | 265 | 0.9 | 0.9 | 0.00 | 0.00 | 0.00 | 85 | |
| 20260507052017 | 60 | 261 | 0.9 | 1.7 | 0.00 | 0.00 | 0.00 | 85 | |
| 20260507051515 | 59 | 286 | 0.0 | 0.0 | 0.00 | 0.00 | 0.00 | 85 | |
| 20260507051011 | 59 | 285 | 0.0 | 0.9 | 0.00 | 0.00 | 0.00 | 85 | |
| 20260507050508 | 60 | 300 | 0.0 | 0.9 | 0.00 | 0.00 | 0.00 | 84 | |
| 20260507050005 | 60 | 300 | 0.0 | 0.0 | 0.00 | 0.00 | 0.00 | 84 | |
| 20260507045501 | 60 | 300 | 0.0 | 0.9 | 0.00 | 0.00 | 0.00 | 83 | |
| 20260507044959 | 60 | 325 | 0.9 | 1.7 | 0.00 | 0.00 | 0.00 | 83 | |
| 20260507044455 | 60 | 316 | 2.6 | 4.3 | 0.00 | 0.00 | 0.00 | 83 | |
| 20260507043951 | 60 | 278 | 0.9 | 1.7 | 0.00 | 0.00 | 0.00 | 83 | |
| 20260507043448 | 60 | 303 | 0.0 | 0.9 | 0.00 | 0.00 | 0.00 | 83 | |
| 20260507042944 | 60 | 318 | 0.9 | 0.9 | 0.00 | 0.00 | 0.00 | 83 | |
| 20260507042441 | 60 | 292 | 0.0 | 0.9 | 0.00 | 0.00 | 0.00 | 83 | |
| 20260507041937 | 60 | 297 | 0.9 | 1.7 | 0.00 | 0.00 | 0.00 | 83 | |
| 20260507041433 | 60 | 272 | 0.9 | 0.9 | 0.00 | 0.00 | 0.00 | 83 | |
| 20260507040931 | 60 | 299 | 0.0 | 0.0 | 0.00 | 0.00 | 0.00 | 83 | |
| 20260507040431 | 60 | 295 | 0.9 | 0.9 | 0.00 | 0.00 | 0.00 | 83 | |
| 20260507035927 | 61 | 297 | 0.0 | 0.9 | 0.00 | 0.00 | 0.00 | 83 | |
| 20260507035424 | 61 | 302 | 0.9 | 0.9 | 0.00 | 0.00 | 0.00 | 83 | |
| 20260507034921 | 61 | 303 | 0.0 | 1.7 | 0.00 | 0.00 | 0.00 | 83 | |
| 20260507034418 | 61 | 335 | 0.9 | 1.7 | 0.00 | 0.00 | 0.00 | 83 | |
| 20260507033916 | 61 | 12 | 1.7 | 2.6 | 0.00 | 0.00 | 0.00 | 83 | |
| 20260507033414 | 61 | 31 | 1.7 | 1.7 | 0.00 | 0.00 | 0.00 | 83 | |
| 20260507032911 | 61 | 4 | 2.6 | 2.6 | 0.00 | 0.00 | 0.00 | 83 | |
| 20260507032407 | 61 | 322 | 0.9 | 1.7 | 0.00 | 0.00 | 0.00 | 83 | |
| 20260507031903 | 61 | 318 | 0.9 | 0.9 | 0.00 | 0.00 | 0.00 | 83 | |
| 20260507031400 | 61 | 292 | 0.9 | 0.9 | 0.00 | 0.00 | 0.00 | 83 | |
| 20260507030857 | 61 | 334 | 0.9 | 1.7 | 0.00 | 0.00 | 0.00 | 82 | |
| 20260507030354 | 62 | 294 | 0.9 | 1.7 | 0.00 | 0.00 | 0.00 | 81 | |
| 20260507025851 | 62 | 313 | 0.9 | 0.9 | 0.00 | 0.00 | 0.00 | 81 | |
| 20260507025348 | 62 | 325 | 0.0 | 0.9 | 0.00 | 0.00 | 0.00 | 81 | |
| 20260507024846 | 62 | 302 | 0.9 | 1.7 | 0.00 | 0.00 | 0.00 | 81 | |
| 20260507024343 | 62 | 266 | 1.7 | 2.6 | 0.00 | 0.00 | 0.00 | 81 | |
| 20260507023839 | 62 | 283 | 2.6 | 4.3 | 0.00 | 0.00 | 0.00 | 81 | |
| 20260507023336 | 63 | 309 | 1.7 | 1.7 | 0.00 | 0.00 | 0.00 | 80 | |
| 20260507022833 | 63 | 330 | 1.7 | 1.7 | 0.00 | 0.00 | 0.00 | 79 | |
| 20260507022330 | 63 | 316 | 2.6 | 2.6 | 0.00 | 0.00 | 0.00 | 77 | |
| 20260507021825 | 63 | 0 | 2.6 | 2.6 | 0.00 | 0.00 | 0.00 | 77 | |
| 20260507021321 | 64 | 339 | 2.6 | 5.2 | 0.00 | 0.00 | 0.00 | 76 | |
| 20260507020819 | 64 | 347 | 1.7 | 2.6 | 0.00 | 0.00 | 0.00 | 75 | |
| 20260507020315 | 65 | 342 | 0.9 | 2.6 | 0.00 | 0.00 | 0.00 | 73 | |
| 20260507015813 | 65 | 39 | 0.9 | 1.7 | 0.00 | 0.00 | 0.00 | 71 | |
| 20260507015310 | 65 | 327 | 2.6 | 4.3 | 0.00 | 0.00 | 0.00 | 71 | |
| 20260507014807 | 65 | 340 | 2.6 | 4.3 | 0.00 | 0.00 | 0.00 | 70 | |
| 20260507014304 | 66 | 313 | 1.7 | 5.2 | 0.00 | 0.00 | 0.00 | 70 | |
| 20260507013800 | 66 | 329 | 0.9 | 5.2 | 0.00 | 0.00 | 0.00 | 69 | |
| 20260507013258 | 66 | 350 | 3.5 | 7.0 | 0.00 | 0.00 | 0.00 | 67 | |
| 20260507012755 | 67 | 47 | 3.5 | 5.2 | 0.00 | 0.00 | 0.00 | 64 | |
| 20260507012250 | 67 | 341 | 4.3 | 6.1 | 0.00 | 0.00 | 0.00 | 62 | |
| 20260507011748 | 67 | 345 | 5.2 | 6.1 | 0.00 | 0.00 | 0.00 | 60 | |
| 20260507011244 | 68 | 335 | 2.6 | 6.1 | 0.00 | 0.00 | 0.00 | 59 | |
| 20260507010744 | 68 | 327 | 1.7 | 5.2 | 0.00 | 0.00 | 0.00 | 59 | |
| 20260507010240 | 68 | 33 | 4.3 | 7.0 | 0.00 | 0.00 | 0.00 | 59 | |
| 20260507005738 | 68 | 6 | 2.6 | 5.2 | 0.00 | 0.00 | 0.00 | 57 | |
| 20260507005234 | 68 | 323 | 2.6 | 6.1 | 0.00 | 0.00 | 0.00 | 54 | |
| 20260507004730 | 68 | 39 | 4.3 | 7.0 | 0.00 | 0.00 | 0.00 | 55 | |
| 20260507004229 | 69 | 25 | 6.1 | 7.0 | 0.00 | 0.00 | 0.00 | 56 | |
| 20260507003724 | 69 | 338 | 4.3 | 7.8 | 0.00 | 0.00 | 0.00 | 54 | |
| 20260507003220 | 69 | 328 | 4.3 | 6.1 | 0.00 | 0.00 | 0.00 | 54 | |
| 20260507002716 | 69 | 58 | 5.2 | 7.8 | 0.00 | 0.00 | 0.00 | 54 | |
| 20260507002212 | 68 | 319 | 5.2 | 8.7 | 0.00 | 0.00 | 0.00 | 55 | |
| 20260507001709 | 68 | 323 | 5.2 | 11.3 | 0.00 | 0.00 | 0.00 | 58 | |
| 20260507001206 | 69 | 306 | 6.1 | 7.8 | 0.00 | 0.00 | 0.00 | 56 | |
| 20260507000702 | 69 | 324 | 3.5 | 9.6 | 0.00 | 0.00 | 0.00 | 57 | |
| 20260507000158 | 69 | 23 | 3.5 | 6.1 | 0.00 | 0.00 | 0.00 | 60 | |
| 20260506235655 | 70 | 301 | 5.2 | 7.8 | 0.00 | 0.00 | 0.00 | 58 | |
| 20260506235151 | 69 | 12 | 6.1 | 8.7 | 0.00 | 0.00 | 0.00 | 63 | |
| 20260506234648 | 68 | 315 | 5.2 | 7.0 | 0.00 | 0.00 | 0.00 | 62 | |
| 20260506234145 | 69 | 354 | 2.6 | 7.8 | 0.00 | 0.00 | 0.00 | 60 | |
| 20260506233642 | 69 | 4 | 4.3 | 7.8 | 0.00 | 0.00 | 0.00 | 61 | |
| 20260506233139 | 69 | 343 | 2.6 | 8.7 | 0.00 | 0.00 | 0.00 | 61 | |
| 20260506232635 | 68 | 334 | 6.1 | 7.8 | 0.00 | 0.00 | 0.00 | 63 | |
| 20260506232131 | 69 | 351 | 6.1 | 7.0 | 0.00 | 0.00 | 0.00 | 60 | |
| 20260506231628 | 68 | 344 | 2.6 | 6.1 | 0.00 | 0.00 | 0.00 | 64 | |
| 20260506231126 | 68 | 322 | 5.2 | 12.2 | 0.00 | 0.00 | 0.00 | 65 | |
| 20260506230623 | 69 | 72 | 5.2 | 6.1 | 0.00 | 0.00 | 0.00 | 62 | |
| 20260506230120 | 69 | 295 | 3.5 | 7.8 | 0.00 | 0.00 | 0.00 | 63 | |
| 20260506225616 | 68 | 49 | 5.2 | 7.8 | 0.00 | 0.00 | 0.00 | 64 | |
| 20260506225113 | 69 | 19 | 4.3 | 8.7 | 0.00 | 0.00 | 0.00 | 63 | |
| 20260506224610 | 69 | 318 | 6.1 | 7.8 | 0.00 | 0.00 | 0.00 | 63 | |
| 20260506224106 | 68 | 339 | 6.1 | 7.8 | 0.00 | 0.00 | 0.00 | 65 | |
| 20260506223602 | 68 | 342 | 7.0 | 9.6 | 0.00 | 0.00 | 0.00 | 65 | |
| 20260506223059 | 68 | 343 | 7.8 | 11.3 | 0.00 | 0.00 | 0.00 | 64 | |
| 20260506222556 | 69 | 315 | 4.3 | 8.7 | 0.00 | 0.00 | 0.00 | 64 | |
| 20260506222052 | 69 | 80 | 3.5 | 9.6 | 0.00 | 0.00 | 0.00 | 64 | |
| 20260506221550 | 68 | 336 | 3.5 | 7.8 | 0.00 | 0.00 | 0.00 | 65 | |
| 20260506221048 | 68 | 47 | 3.5 | 8.7 | 0.00 | 0.00 | 0.00 | 64 | |
| 20260506220543 | 68 | 61 | 4.3 | 9.6 | 0.00 | 0.00 | 0.00 | 67 | |
| 20260506220039 | 68 | 47 | 2.6 | 7.8 | 0.00 | 0.00 | 0.00 | 65 | |
| 20260506215536 | 68 | 32 | 8.7 | 11.3 | 0.00 | 0.00 | 0.00 | 64 | |
| 20260506215032 | 68 | 4 | 7.8 | 9.6 | 0.00 | 0.00 | 0.00 | 64 | |
| 20260506214529 | 70 | 11 | 6.1 | 8.7 | 0.00 | 0.00 | 0.00 | 57 | |
| 20260506214026 | 68 | 355 | 3.5 | 12.2 | 0.00 | 0.00 | 0.00 | 64 | |
| 20260506213524 | 68 | 352 | 3.5 | 9.6 | 0.00 | 0.00 | 0.00 | 65 | |
| 20260506213021 | 68 | 351 | 7.0 | 11.3 | 0.00 | 0.00 | 0.00 | 64 | |
| 20260506212517 | 69 | 31 | 3.5 | 8.7 | 0.00 | 0.00 | 0.00 | 62 | |
| 20260506212013 | 69 | 2 | 4.3 | 8.7 | 0.00 | 0.00 | 0.00 | 62 | |
| 20260506211509 | 69 | 346 | 5.2 | 7.8 | 0.00 | 0.00 | 0.00 | 62 | |
| 20260506211006 | 69 | 9 | 5.2 | 7.0 | 0.00 | 0.00 | 0.00 | 62 | |
| 20260506210502 | 69 | 332 | 5.2 | 8.7 | 0.00 | 0.00 | 0.00 | 62 | |
| 20260506205959 | 69 | 308 | 6.1 | 8.7 | 0.00 | 0.00 | 0.00 | 61 | |
| 20260506205455 | 69 | 314 | 7.8 | 8.7 | 0.00 | 0.00 | 0.00 | 62 | |
| 20260506204952 | 68 | 19 | 6.1 | 7.8 | 0.00 | 0.00 | 0.00 | 62 | |
| 20260506204450 | 69 | 348 | 6.1 | 9.6 | 0.00 | 0.00 | 0.00 | 62 | |
| 20260506203947 | 69 | 325 | 4.3 | 7.8 | 0.00 | 0.00 | 0.00 | 62 | |
| 20260506203444 | 69 | 20 | 6.1 | 9.6 | 0.00 | 0.00 | 0.00 | 62 | |
| 20260506202941 | 70 | 89 | 7.0 | 7.8 | 0.00 | 0.00 | 0.00 | 59 | |
| 20260506202438 | 70 | 4 | 3.5 | 7.8 | 0.00 | 0.00 | 0.00 | 59 | |
| 20260506201934 | 69 | 300 | 6.1 | 7.8 | 0.00 | 0.00 | 0.00 | 60 | |
| 20260506201432 | 69 | 342 | 2.6 | 7.0 | 0.00 | 0.00 | 0.00 | 61 | |
| 20260506200928 | 69 | 85 | 4.3 | 7.8 | 0.00 | 0.00 | 0.00 | 61 | |
| 20260506200425 | 69 | 342 | 3.5 | 11.3 | 0.00 | 0.00 | 0.00 | 60 | |
| 20260506195921 | 70 | 5 | 3.5 | 7.8 | 0.00 | 0.00 | 0.00 | 60 | |
| 20260506195418 | 69 | 322 | 3.5 | 7.8 | 0.00 | 0.00 | 0.00 | 61 | |
| 20260506194915 | 69 | 17 | 5.2 | 9.6 | 0.00 | 0.00 | 0.00 | 61 | |
| 20260506194412 | 69 | 315 | 3.5 | 11.3 | 0.00 | 0.00 | 0.00 | 62 | |
| 20260506193909 | 68 | 9 | 2.6 | 7.0 | 0.00 | 0.00 | 0.00 | 63 | |
| 20260506193406 | 69 | 22 | 5.2 | 7.8 | 0.00 | 0.00 | 0.00 | 60 | |
| 20260506192902 | 70 | 352 | 3.5 | 7.0 | 0.00 | 0.00 | 0.00 | 60 | |
| 20260506192359 | 69 | 343 | 3.5 | 7.0 | 0.00 | 0.00 | 0.00 | 60 | |
| 20260506191856 | 69 | 315 | 4.3 | 8.7 | 0.00 | 0.00 | 0.00 | 62 | |
| 20260506191352 | 70 | 29 | 2.6 | 6.1 | 0.00 | 0.00 | 0.00 | 60 | |
| 20260506190849 | 69 | 7 | 4.3 | 6.1 | 0.00 | 0.00 | 0.00 | 61 | |
| 20260506190345 | 70 | 331 | 2.6 | 7.0 | 0.00 | 0.00 | 0.00 | 59 | |
| 20260506185843 | 69 | 6 | 2.6 | 6.1 | 0.00 | 0.00 | 0.00 | 59 | |
| 20260506185340 | 69 | 313 | 4.3 | 7.8 | 0.00 | 0.00 | 0.00 | 60 | |
| 20260506184831 | 69 | 288 | 6.1 | 7.0 | 0.00 | 0.00 | 0.00 | 59 | |
| 20260506184328 | 68 | 124 | 4.3 | 7.0 | 0.00 | 0.00 | 0.00 | 60 | |
| 20260506183826 | 68 | 44 | 5.2 | 8.7 | 0.00 | 0.00 | 0.00 | 60 | |
| 20260506183321 | 69 | 42 | 2.6 | 7.0 | 0.00 | 0.00 | 0.00 | 59 | |
| 20260506182819 | 69 | 268 | 0.9 | 5.2 | 0.00 | 0.00 | 0.00 | 59 | |
| 20260506182315 | 68 | 322 | 1.7 | 5.2 | 0.00 | 0.00 | 0.00 | 62 | |
| 20260506181813 | 69 | 73 | 6.1 | 7.0 | 0.00 | 0.00 | 0.00 | 59 | |
| 20260506181310 | 68 | 329 | 3.5 | 8.7 | 0.00 | 0.00 | 0.00 | 61 | |
| 20260506180807 | 69 | 343 | 4.3 | 7.8 | 0.00 | 0.00 | 0.00 | 57 | |
| 20260506180303 | 69 | 16 | 2.6 | 4.3 | 0.00 | 0.00 | 0.00 | 60 | |
| 20260506175754 | 69 | 53 | 4.3 | 5.2 | 0.00 | 0.00 | 0.00 | 58 | |
| 20260506175251 | 68 | 90 | 4.3 | 6.1 | 0.00 | 0.00 | 0.00 | 60 | |
| 20260506174749 | 68 | 319 | 3.5 | 4.3 | 0.00 | 0.00 | 0.00 | 60 | |
| 20260506174245 | 68 | 136 | 3.5 | 6.1 | 0.00 | 0.00 | 0.00 | 61 | |
| 20260506173743 | 68 | 323 | 5.2 | 6.1 | 0.00 | 0.00 | 0.00 | 57 | |
| 20260506173240 | 68 | 287 | 0.9 | 4.3 | 0.00 | 0.00 | 0.00 | 59 | |
| 20260506172737 | 67 | 320 | 0.9 | 1.7 | 0.00 | 0.00 | 0.00 | 59 | |
| 20260506172233 | 67 | 53 | 0.9 | 6.1 | 0.00 | 0.00 | 0.00 | 57 | |
| 20260506171731 | 66 | 62 | 1.7 | 2.6 | 0.00 | 0.00 | 0.00 | 59 | |
| 20260506171228 | 66 | 94 | 5.2 | 6.1 | 0.00 | 0.00 | 0.00 | 62 | |
| 20260506170725 | 66 | 126 | 2.6 | 5.2 | 0.00 | 0.00 | 0.00 | 63 | |
| 20260506170216 | 66 | 42 | 3.5 | 6.1 | 0.00 | 0.00 | 0.00 | 64 | |
| 20260506165715 | 64 | 155 | 1.7 | 4.3 | 0.00 | 0.00 | 0.00 | 64 | |
| 20260506165211 | 64 | 82 | 4.3 | 6.1 | 0.00 | 0.00 | 0.00 | 65 | |
| 20260506164709 | 65 | 70 | 6.1 | 7.0 | 0.00 | 0.00 | 0.00 | 65 | |
| 20260506164206 | 65 | 53 | 2.6 | 4.3 | 0.00 | 0.00 | 0.00 | 65 | |
| 20260506163702 | 65 | 46 | 4.3 | 6.1 | 0.00 | 0.00 | 0.00 | 66 | |
| 20260506163157 | 65 | 88 | 2.6 | 4.3 | 0.00 | 0.00 | 0.00 | 67 | |
| 20260506162653 | 64 | 25 | 1.7 | 2.6 | 0.00 | 0.00 | 0.00 | 67 | |
| 20260506162151 | 64 | 330 | 0.9 | 4.3 | 0.00 | 0.00 | 0.00 | 68 | |
| 20260506161648 | 64 | 32 | 3.5 | 4.3 | 0.00 | 0.00 | 0.00 | 67 |